Regional Weather Roundup
Issued by NWS Charleston, SC

Current Version | Previous Version | Text Only | Print | Product List | Glossary Off
Versions: 1 2 3 4 5 6 7 8 9 10 11 12 13 14 15 16 17 18 19 20 21 22 23 24 25 26 27 28 29 30 31 32 33 34 35 36 37 38 39 40 41 42 43 44 45 46 47 48 49 50

000
ASUS42 KCHS 190127
RWRCHS

REGIONAL WEATHER ROUNDUP
NATIONAL WEATHER SERVICE CHARLESTON SC
900 PM EDT WED OCT 18 2017

NOTE: "FAIR" INDICATES FEW OR NO CLOUDS BELOW 12,000 FEET WITH NO
SIGNIFICANT WEATHER AND/OR OBSTRUCTIONS TO VISIBILITY.

NOT ALL STATIONS ARE QUALITY CONTROLLED. USE DATA WITH CAUTION...
ESPECIALLY DEWPOINT OBSERVATIONS.

SCZ027-030-031-034>040-042>050-190200-
...SOUTHEAST SOUTH CAROLINA...

CITY           SKY/WX    TMP DP  RH WIND       PRES   REMARKS
N CHARLESTON   CLEAR     62  57  83 NE5       30.26S
WATERFRONT PRK   N/A     69  62  78 NE9         N/A
JOHNS ISLAND   FAIR      68  61  77 N7        30.26F
PINOPOLIS        N/A     70  59  68 NE12      30.18S
MONCKS CORNER  FAIR      63  55  77 NE5       30.28R
SUMMERVILLE    FAIR      57  55  94 CALM      30.28S
BEAUFORT MCAS  CLEAR     65  59  81 N9        30.26R
BEAUFORT ARPT  FAIR      66  59  77 NE10      30.26S
HILTON HEAD IS CLEAR     68  61  77 NE14      30.26R
WALTERBORO     CLEAR     61  54  77 CALM      30.28S
ALLENDALE      NOT AVBL

...SOUTHERN MIDLANDS AND PEE DEE...

CITY           SKY/WX    TMP DP  RH WIND       PRES   REMARKS
GEORGETOWN     FAIR      61  59  94 N3        30.28S
KINGSTREE      FAIR      54  52  94 CALM      30.29S
ORANGEBURG     CLEAR     56  47  71 NE3       30.29S
BARNWELL         N/A     57  46  67 CALM      30.30R
AIKEN          FAIR      48  41  76 E3        30.34R
MANNING        FOG       54  52  94 MISG      30.29S VSB<1/4
COLUMBIA       CLEAR     53  47  79 CALM      30.30R
SUMTER         CLEAR     54  44  69 NE6       30.28R
FLORENCE       CLEAR     59  49  69 NE6       30.30S
MYRTLE BEACH   CLEAR     64  56  75 NE8       30.28F
N MYRTLE BEACH CLEAR     61  56  83 NE6       30.27S

$$

GAZ063-065-086>088-099>101-113>116-118-119-134>141-150-190200-
...SOUTHEAST GEORGIA...

CITY           SKY/WX    TMP DP  RH WIND       PRES   REMARKS
SAVANNAH ARPT  CLEAR     65  60  84 NE9       30.26R
HUNTER AAF     CLEAR     67  62  82 NE5       30.23R
FORT STEWART   CLEAR     64  59  84 NE5       30.23R
STATESBORO     CLEAR     63  52  65 NE3       30.28R
SYLVANIA       CLEAR     61  54  77 NE6       30.28R
CLAXTON        FAIR      61  59  92 CALM      30.26S

...CSRA...CENTRAL AND FAR SOUTHEAST GEORGIA...

CITY           SKY/WX    TMP DP  RH WIND       PRES   REMARKS
THOMSON        CLEAR     50  45  84 CALM      30.35R
AUGUSTA-BUSH   CLEAR     53  46  77 CALM      30.29R
AUGUSTA-DANIEL CLEAR     64  41  42 NE7       30.30R
SWAINSBORO     FAIR      61  46  59 MISG      30.28R
VIDALIA        CLEAR     63  54  72 NE6       30.26R
EASTMAN        FAIR      56  39  52 NE3       30.29R
HAZLEHURST     FAIR      66  42  40 NE5       30.24S
ALMA           CLEAR     62  58  86 CALM      30.24R
WAYCROSS       CLEAR     65  60  84 E6        30.24R
JESUP          NOT AVBL
BAXLEY         FAIR      63  55  77 NE5       30.24S
BRUNSWICK      CLOUDY    70  61  73 NE9       30.23R
SAINT SIMONS   CLOUDY    73  66  78 NE13      30.21R

$$

SCZ027-028-034-036>038-045-046-048>050-GAZ119-141-190200-
...LAKE AND SUPPLEMENTAL COASTAL OBSERVATIONS...

STATION/POSITION TIME  TEMP    WIND        PRES    WAVE   SWELL
                       AIR SEA DIR/SP/G            HT/PER HT/PER/DIR
                 (UTC) (F)     (DEG/KT/KT) (MB)    (FT/S) (FT/S/D)
WINYAH BAY       0045   65     360/  6     1025.0S
LAKE MURRAY      0020   62      CALM  /  2 1025.4
ACE BASIN NERRS  0045   65      10/  1     1025.0R
FORT PULASKI     0100   70 73   40/  8/ 14 1024.5
SAPELO ISLAND    0100   72      40/ 12     1023.0

$$

ANZ835-935-AMZ111-154-330-350-352-354-370-450-454-472-190200-
...C-MAN AND BUOY OBSERVATIONS...

STATION/POSITION TIME  TEMP    WIND        PRES    WAVE   SWELL
                       AIR SEA DIR/SP/G            HT/PER HT/PER/DIR
                 (UTC) (F)     (DEG/KT/KT) (MB)    (FT/S) (FT/S/D)
BUOY 41004       0100   74 80   40/ 23/ 29 1022.7
BUOY 41008       0050   73 78   50/ 21/ 25 1022.1R   8/ 6
FOLLY BEACH CMAN 0100   69      20/ 12/ 15 1025.0R
CAPERS NEARSHORE 0108   68 75   40/ 14/ 17 1024.0R
FRIPP NEARSHORE  0108   71      40/ 16/ 21   N/A


STATION/POSITION TIME  TEMP    WIND        PRES    WAVE   SWELL
                       AIR SEA DIR/SP/G            HT/PER HT/PER/DIR
                 (UTC) (F)     (DEG/KT/KT) (MB)    (FT/S) (FT/S/D)
5E ST. MARYS GA  0100      78                N/A     7/ 6   2/ 90/11
FRYING PAN BUOY  0100   72 76   30/ 19/ 25 1023.4
BUOY 41025       0050   74 82   80/ 14/ 19 1024.7R   6/10   5/120/10
CAPE LOOKOUT NC  0100   65      20/ 12/ 14 1025.0F
BUOY 41002       0050   77 80   70/ 23/ 27 1020.1F  10/ 9
BUOY 41010       NOT AVBL
ST AUGUSTINE FL  0100   75 78   10/ 20/ 21 1021.1R


$$



USA.gov is the U.S. government's official web portal to all federal, state and local government web resources and services.